SPHAA EPWA-EPLL

Flight info

Callsign SPHAA
Flight time 0h 29m
Altitude 8000
Route SOXER
Aircraft DA42/L-SBDGRY/S

Departure

Time 2026-04-20 16:33
Airport Warsaw Chopin Airport (EPWA)

Arrival

Time 2026-04-20 17:02
Airport Łódź Władysław Reymont Airport (EPLL)
Time Latitude Longitude Altitude Speed Heading
2026-04-20 16:12 52.18034 20.96088 347 ft 0 kts 318°
2026-04-20 16:26 52.18038 20.96082 350 ft 5 kts 313°
2026-04-20 16:26 52.18001 20.96062 349 ft 9 kts 171°
2026-04-20 16:26 52.17976 20.95979 347 ft 10 kts 256°
2026-04-20 16:27 52.17941 20.95868 347 ft 12 kts 240°
2026-04-20 16:27 52.17898 20.95744 352 ft 11 kts 240°
2026-04-20 16:27 52.17895 20.95737 346 ft 0 kts 240°
2026-04-20 16:29 52.17879 20.95690 346 ft 11 kts 240°
2026-04-20 16:30 52.17800 20.95640 346 ft 15 kts 156°
2026-04-20 16:30 52.17784 20.95652 345 ft 0 kts 152°
2026-04-20 16:31 52.17783 20.95654 353 ft 4 kts 150°
2026-04-20 16:31 52.17593 20.95822 346 ft 62 kts 150°
2026-04-20 16:32 52.17080 20.96260 385 ft 95 kts 143°
2026-04-20 16:32 52.16472 20.96796 527 ft 104 kts 141°
2026-04-20 16:32 52.15827 20.97361 729 ft 106 kts 139°
2026-04-20 16:32 52.15203 20.97936 957 ft 104 kts 139°
2026-04-20 16:33 52.14587 20.98531 1186 ft 102 kts 137°
2026-04-20 16:33 52.14001 20.99142 1432 ft 98 kts 137°
2026-04-20 16:33 52.13383 20.99688 1639 ft 104 kts 146°
2026-04-20 16:33 52.12712 21.00215 1794 ft 109 kts 144°
2026-04-20 16:34 52.11941 21.00428 1989 ft 118 kts 182°
2026-04-20 16:34 52.11187 20.99882 2241 ft 118 kts 206°
2026-04-20 16:34 52.10492 20.99174 2493 ft 117 kts 206°
2026-04-20 16:34 52.09800 20.98484 2745 ft 117 kts 205°
2026-04-20 16:35 52.09104 20.97798 2994 ft 117 kts 205°
2026-04-20 16:35 52.08403 20.97114 3227 ft 117 kts 206°
2026-04-20 16:35 52.07710 20.96441 3441 ft 111 kts 206°
2026-04-20 16:35 52.07077 20.95825 3586 ft 102 kts 205°
2026-04-20 16:36 52.06472 20.95242 3733 ft 100 kts 204°
2026-04-20 16:36 52.05871 20.94664 3838 ft 101 kts 204°
2026-04-20 16:36 52.05276 20.94092 3941 ft 101 kts 204°
2026-04-20 16:36 52.04668 20.93509 4024 ft 101 kts 204°
2026-04-20 16:37 52.04062 20.92922 4116 ft 102 kts 206°
2026-04-20 16:37 52.03610 20.92026 4212 ft 106 kts 252°
2026-04-20 16:37 52.03528 20.90849 4329 ft 105 kts 271°
2026-04-20 16:37 52.03505 20.89662 4438 ft 106 kts 271°
2026-04-20 16:38 52.03482 20.88465 4546 ft 106 kts 271°
2026-04-20 16:38 52.03458 20.87273 4643 ft 106 kts 271°
2026-04-20 16:38 52.03432 20.86078 4741 ft 106 kts 271°
2026-04-20 16:38 52.03406 20.84882 4840 ft 106 kts 271°
2026-04-20 16:39 52.03379 20.83686 4940 ft 107 kts 271°
2026-04-20 16:39 52.03352 20.82479 5046 ft 107 kts 271°
2026-04-20 16:39 52.03324 20.81273 5145 ft 107 kts 271°
2026-04-20 16:39 52.03297 20.80081 5242 ft 107 kts 270°
2026-04-20 16:40 52.03269 20.78864 5388 ft 109 kts 270°
2026-04-20 16:40 52.03240 20.77624 5551 ft 110 kts 270°
2026-04-20 16:40 52.03210 20.76368 5733 ft 113 kts 270°
2026-04-20 16:40 52.03177 20.75032 5983 ft 123 kts 270°
2026-04-20 16:41 52.03145 20.73624 6265 ft 126 kts 270°
2026-04-20 16:41 52.03111 20.72184 6567 ft 128 kts 270°
2026-04-20 16:41 52.03076 20.70734 6858 ft 129 kts 270°
2026-04-20 16:41 52.03041 20.69281 7150 ft 129 kts 270°
2026-04-20 16:42 52.03006 20.67828 7455 ft 129 kts 270°
2026-04-20 16:42 52.02970 20.66366 7760 ft 130 kts 270°
2026-04-20 16:42 52.02934 20.64898 8047 ft 132 kts 271°
2026-04-20 16:42 52.02897 20.63278 8062 ft 154 kts 270°
2026-04-20 16:43 52.02855 20.61459 8064 ft 167 kts 270°
2026-04-20 16:43 52.02805 20.59532 8060 ft 174 kts 269°
2026-04-20 16:43 52.02753 20.57540 8052 ft 178 kts 269°
2026-04-20 16:43 52.02701 20.55522 8052 ft 180 kts 269°
2026-04-20 16:44 52.02728 20.53505 8055 ft 182 kts 275°
2026-04-20 16:44 52.02786 20.51449 8053 ft 183 kts 275°
2026-04-20 16:44 52.02844 20.49382 8047 ft 183 kts 274°
2026-04-20 16:44 52.02904 20.47316 8048 ft 183 kts 274°
2026-04-20 16:45 52.02967 20.45249 8049 ft 183 kts 274°
2026-04-20 16:45 52.03029 20.43179 8050 ft 183 kts 274°
2026-04-20 16:45 52.03090 20.41114 8050 ft 183 kts 274°
2026-04-20 16:45 52.03149 20.39054 8049 ft 183 kts 274°
2026-04-20 16:46 52.03208 20.36994 8050 ft 183 kts 274°
2026-04-20 16:46 52.03268 20.34926 8050 ft 183 kts 274°
2026-04-20 16:46 52.03327 20.32866 8050 ft 182 kts 274°
2026-04-20 16:46 52.03369 20.30803 8044 ft 183 kts 266°
2026-04-20 16:47 52.02931 20.28910 8045 ft 182 kts 237°
2026-04-20 16:47 52.02233 20.27187 8055 ft 182 kts 234°
2026-04-20 16:47 52.01517 20.25496 8055 ft 182 kts 233°
2026-04-20 16:47 52.00778 20.23832 8055 ft 181 kts 231°
2026-04-20 16:48 52.00021 20.22199 8055 ft 181 kts 231°
2026-04-20 16:48 51.99268 20.20560 8053 ft 181 kts 232°
2026-04-20 16:48 51.98515 20.18909 8055 ft 183 kts 232°
2026-04-20 16:48 51.97754 20.17238 8050 ft 185 kts 232°
2026-04-20 16:49 51.96987 20.15556 8055 ft 186 kts 232°
2026-04-20 16:49 51.96218 20.13868 8055 ft 187 kts 232°
2026-04-20 16:49 51.95447 20.12174 8057 ft 187 kts 232°
2026-04-20 16:49 51.94671 20.10472 8056 ft 188 kts 232°
2026-04-20 16:50 51.93892 20.08768 8059 ft 188 kts 232°
2026-04-20 16:50 51.93111 20.07059 8058 ft 188 kts 232°
2026-04-20 16:50 51.92330 20.05351 8059 ft 189 kts 232°
2026-04-20 16:50 51.91548 20.03643 8053 ft 189 kts 232°
2026-04-20 16:51 51.90769 20.01938 8054 ft 188 kts 232°
2026-04-20 16:51 51.89989 20.00234 8058 ft 188 kts 232°
2026-04-20 16:51 51.89208 19.98531 8058 ft 188 kts 232°
2026-04-20 16:51 51.88438 19.96853 7989 ft 187 kts 232°
2026-04-20 16:52 51.87654 19.95136 7467 ft 191 kts 231°
2026-04-20 16:52 51.86863 19.93413 6967 ft 191 kts 231°
2026-04-20 16:52 51.86069 19.91690 6481 ft 191 kts 231°
2026-04-20 16:52 51.85275 19.89967 5966 ft 190 kts 231°
2026-04-20 16:53 51.84487 19.88256 5465 ft 188 kts 231°
2026-04-20 16:53 51.83709 19.86565 4966 ft 186 kts 231°
2026-04-20 16:53 51.82940 19.84894 4468 ft 184 kts 231°
2026-04-20 16:53 51.82209 19.83202 3970 ft 182 kts 233°
2026-04-20 16:54 51.81502 19.81516 3503 ft 179 kts 233°
2026-04-20 16:54 51.80806 19.79861 3060 ft 176 kts 234°
2026-04-20 16:54 51.80168 19.78351 3045 ft 151 kts 233°
2026-04-20 16:54 51.79619 19.77038 3039 ft 136 kts 235°
2026-04-20 16:55 51.79426 19.75643 3043 ft 124 kts 281°
2026-04-20 16:55 51.79551 19.74315 3039 ft 120 kts 267°
2026-04-20 16:55 51.79354 19.73012 3049 ft 120 kts 251°
2026-04-20 16:55 51.79086 19.71722 3055 ft 122 kts 250°
2026-04-20 16:56 51.78808 19.70415 3052 ft 124 kts 250°
2026-04-20 16:56 51.78526 19.69098 3062 ft 125 kts 250°
2026-04-20 16:56 51.78241 19.67771 3053 ft 125 kts 250°
2026-04-20 16:56 51.77956 19.66445 3055 ft 125 kts 250°
2026-04-20 16:57 51.77670 19.65116 3055 ft 126 kts 250°
2026-04-20 16:57 51.77382 19.63779 3055 ft 126 kts 250°
2026-04-20 16:57 51.77094 19.62442 3056 ft 126 kts 249°
2026-04-20 16:57 51.76809 19.61116 3053 ft 123 kts 250°
2026-04-20 16:58 51.76534 19.59841 3044 ft 118 kts 249°
2026-04-20 16:58 51.76267 19.58603 3043 ft 115 kts 250°
2026-04-20 16:58 51.76005 19.57397 3039 ft 113 kts 250°
2026-04-20 16:58 51.75749 19.56212 3039 ft 111 kts 250°
2026-04-20 16:59 51.75492 19.55015 2978 ft 115 kts 250°
2026-04-20 16:59 51.75228 19.53748 2841 ft 123 kts 250°
2026-04-20 16:59 51.74956 19.52425 2726 ft 130 kts 250°
2026-04-20 16:59 51.74664 19.51025 2593 ft 134 kts 249°
2026-04-20 17:00 51.74033 19.48232 1896 ft 135 kts 249°
2026-04-20 17:00 51.73837 19.47339 1742 ft 119 kts 249°
2026-04-20 17:00 51.73590 19.46192 1562 ft 103 kts 248°
2026-04-20 17:01 51.73361 19.45149 1436 ft 98 kts 249°
2026-04-20 17:01 51.73130 19.44116 1265 ft 98 kts 250°
2026-04-20 17:01 51.72901 19.43107 1049 ft 93 kts 250°
2026-04-20 17:01 51.72686 19.42145 884 ft 86 kts 252°
2026-04-20 17:02 51.72490 19.41230 732 ft 85 kts 252°
2026-04-20 17:02 51.72311 19.40379 597 ft 62 kts 250°
2026-04-20 17:02 51.72270 19.40178 598 ft 1 kts 270°
2026-04-20 17:02 51.72258 19.40195 598 ft 8 kts 62°
2026-04-20 17:03 51.72295 19.40335 597 ft 17 kts 70°
2026-04-20 17:03 51.72339 19.40524 597 ft 14 kts 71°
2026-04-20 17:03 51.72349 19.40597 597 ft 11 kts 95°
2026-04-20 17:03 51.72284 19.40697 599 ft 14 kts 143°
2026-04-20 17:04 51.72222 19.40771 599 ft 9 kts 144°
2026-04-20 17:04 51.72172 19.40842 599 ft 11 kts 103°
2026-04-20 17:04 51.72134 19.40927 599 ft 12 kts 156°
2026-04-20 17:04 51.72040 19.41012 599 ft 16 kts 161°
2026-04-20 17:05 51.71981 19.40923 599 ft 16 kts 230°
2026-04-20 17:05 51.71900 19.40762 598 ft 18 kts 243°
2026-04-20 17:05 51.71875 19.40501 597 ft 30 kts 267°
2026-04-20 17:05 51.71867 19.40208 596 ft 26 kts 273°
2026-04-20 17:06 51.71811 19.39952 595 ft 28 kts 234°
2026-04-20 17:06 51.71729 19.39766 594 ft 13 kts 249°
2026-04-20 17:06 51.71699 19.39639 594 ft 12 kts 246°
2026-04-20 17:06 51.71682 19.39595 593 ft 0 kts 237°